Time,TemperatureF,DewpointF,PressureIn,WindDirection,WindDirectionDegrees,WindSpeedMPH,WindSpeedGustMPH,Humidity,HourlyPrecipIn,Conditions,Clouds,dailyrainin,SoftwareType,DateUTC
2013-03-30 00:00:00,27.0,18.9,29.48,South,180,0.0,0.0,71,0.00,,,0.00,meteohub,2013-03-30 04:00:00,
2013-03-30 00:05:00,26.6,18.5,29.48,SW,225,0.0,2.0,71,0.00,,,0.00,meteohub,2013-03-30 04:05:00,
2013-03-30 00:10:00,26.4,18.3,29.48,SW,225,0.0,2.0,71,0.00,,,0.00,meteohub,2013-03-30 04:10:00,
2013-03-30 00:15:00,26.2,18.5,29.47,SW,225,0.0,2.0,72,0.00,,,0.00,meteohub,2013-03-30 04:15:00,
2013-03-30 00:20:00,26.2,18.9,29.47,SSW,203,0.0,2.0,73,0.00,,,0.00,meteohub,2013-03-30 04:20:00,
2013-03-30 00:25:00,26.1,18.7,29.47,ESE,113,0.0,2.0,73,0.00,,,0.00,meteohub,2013-03-30 04:25:00,
2013-03-30 00:31:00,25.9,18.5,29.47,ESE,113,0.0,0.0,73,0.00,,,0.00,meteohub,2013-03-30 04:31:00,
2013-03-30 00:36:00,25.7,18.3,29.47,ESE,113,0.0,0.0,73,0.00,,,0.00,meteohub,2013-03-30 04:36:00,
2013-03-30 00:41:00,25.5,18.1,29.47,ESE,113,0.0,0.0,73,0.00,,,0.00,meteohub,2013-03-30 04:41:00,
2013-03-30 00:46:00,25.5,18.1,29.47,SSW,203,0.0,0.0,73,0.00,,,0.00,meteohub,2013-03-30 04:46:00,
2013-03-30 00:51:00,25.3,18.1,29.47,SSW,203,0.0,0.0,74,0.00,,,0.00,meteohub,2013-03-30 04:51:00,
2013-03-30 00:56:00,25.3,18.1,29.47,NE,45,0.0,0.0,74,0.00,,,0.00,meteohub,2013-03-30 04:56:00,
2013-03-30 01:01:00,25.2,18.0,29.47,ENE,68,0.0,0.0,74,0.00,,,0.00,meteohub,2013-03-30 05:01:00,
2013-03-30 01:06:00,25.2,18.0,29.47,ESE,113,0.0,0.0,74,0.00,,,0.00,meteohub,2013-03-30 05:06:00,
2013-03-30 01:12:00,25.0,18.0,29.47,North,0,0.0,0.0,74,0.00,,,0.00,meteohub,2013-03-30 05:12:00,
2013-03-30 01:17:00,24.8,18.0,29.47,NW,315,0.0,0.0,75,0.00,,,0.00,meteohub,2013-03-30 05:17:00,
2013-03-30 01:22:00,24.8,18.0,29.47,WNW,293,0.0,0.0,75,0.00,,,0.00,meteohub,2013-03-30 05:22:00,
2013-03-30 01:27:00,24.8,18.0,29.47,WNW,293,0.0,0.0,75,0.00,,,0.00,meteohub,2013-03-30 05:27:00,
2013-03-30 01:32:00,24.6,17.8,29.47,North,0,0.0,0.0,75,0.00,,,0.00,meteohub,2013-03-30 05:32:00,
2013-03-30 01:37:00,24.6,17.8,29.47,NW,315,0.0,0.0,75,0.00,,,0.00,meteohub,2013-03-30 05:37:00,
2013-03-30 01:42:00,24.6,18.1,29.47,WNW,293,0.0,0.0,76,0.00,,,0.00,meteohub,2013-03-30 05:42:00,
2013-03-30 01:47:00,24.4,18.0,29.47,North,0,0.0,2.0,76,0.00,,,0.00,meteohub,2013-03-30 05:47:00,
2013-03-30 01:52:00,24.4,18.3,29.47,WNW,293,0.0,2.0,77,0.00,,,0.00,meteohub,2013-03-30 05:52:00,
2013-03-30 01:57:00,24.3,18.1,29.47,North,0,0.0,2.0,77,0.00,,,0.00,meteohub,2013-03-30 05:57:00,
2013-03-30 02:02:00,24.1,18.0,29.47,NNE,23,0.0,2.0,77,0.00,,,0.00,meteohub,2013-03-30 06:02:00,
2013-03-30 02:07:00,23.9,17.8,29.47,NE,45,0.0,0.0,77,0.00,,,0.00,meteohub,2013-03-30 06:07:00,
2013-03-30 02:12:00,23.9,17.8,29.48,NE,45,0.0,0.0,77,0.00,,,0.00,meteohub,2013-03-30 06:12:00,
2013-03-30 02:17:00,24.1,18.0,29.48,NE,45,0.0,0.0,77,0.00,,,0.00,meteohub,2013-03-30 06:17:00,
2013-03-30 02:22:00,23.9,17.8,29.48,NE,45,0.0,0.0,77,0.00,,,0.00,meteohub,2013-03-30 06:22:00,
2013-03-30 02:27:00,23.9,17.8,29.48,SW,225,0.0,0.0,77,0.00,,,0.00,meteohub,2013-03-30 06:27:00,
2013-03-30 02:32:00,23.7,17.6,29.47,West,270,0.0,0.0,77,0.00,,,0.00,meteohub,2013-03-30 06:32:00,
2013-03-30 02:37:00,23.5,17.4,29.47,ENE,68,0.0,0.0,77,0.00,,,0.00,meteohub,2013-03-30 06:37:00,
2013-03-30 02:42:00,23.4,17.2,29.47,East,90,0.0,0.0,77,0.00,,,0.00,meteohub,2013-03-30 06:42:00,
2013-03-30 02:47:00,23.2,17.1,29.47,NE,45,0.0,0.0,77,0.00,,,0.00,meteohub,2013-03-30 06:47:00,
2013-03-30 02:52:00,23.2,17.1,29.47,SW,225,0.0,0.0,77,0.00,,,0.00,meteohub,2013-03-30 06:52:00,
2013-03-30 02:57:00,23.0,16.9,29.47,ESE,113,0.0,0.0,77,0.00,,,0.00,meteohub,2013-03-30 06:57:00,
2013-03-30 03:02:00,22.8,16.7,29.47,SSW,203,0.0,0.0,77,0.00,,,0.00,meteohub,2013-03-30 07:02:00,
2013-03-30 03:07:00,22.6,16.5,29.47,ESE,113,0.0,0.0,77,0.00,,,0.00,meteohub,2013-03-30 07:07:00,
2013-03-30 03:12:00,22.5,16.7,29.47,NE,45,0.0,0.0,78,0.00,,,0.00,meteohub,2013-03-30 07:12:00,
2013-03-30 03:17:00,22.5,16.7,29.47,NNE,23,0.0,0.0,78,0.00,,,0.00,meteohub,2013-03-30 07:17:00,
2013-03-30 03:22:00,22.3,16.5,29.47,SSW,203,2.0,0.0,78,0.00,,,0.00,meteohub,2013-03-30 07:22:00,
2013-03-30 03:27:00,22.3,16.5,29.47,NNW,338,0.0,2.0,78,0.00,,,0.00,meteohub,2013-03-30 07:27:00,
2013-03-30 03:32:00,22.3,16.5,29.47,SSE,158,0.0,2.0,78,0.00,,,0.00,meteohub,2013-03-30 07:32:00,
2013-03-30 03:37:00,22.1,16.5,29.47,NE,45,0.0,2.0,79,0.00,,,0.00,meteohub,2013-03-30 07:37:00,
2013-03-30 03:42:00,22.1,16.5,29.47,SSW,203,0.0,2.0,79,0.00,,,0.00,meteohub,2013-03-30 07:42:00,
2013-03-30 03:47:00,21.9,16.2,29.47,East,90,0.0,0.0,78,0.00,,,0.00,meteohub,2013-03-30 07:47:00,
2013-03-30 03:52:00,21.9,16.2,29.46,SE,135,0.0,0.0,78,0.00,,,0.00,meteohub,2013-03-30 07:52:00,
2013-03-30 03:57:00,21.9,16.3,29.46,ESE,113,0.0,0.0,79,0.00,,,0.00,meteohub,2013-03-30 07:57:00,
2013-03-30 04:02:00,21.9,16.3,29.46,SE,135,0.0,0.0,79,0.00,,,0.00,meteohub,2013-03-30 08:02:00,
2013-03-30 04:07:00,21.9,16.3,29.46,ESE,113,0.0,0.0,79,0.00,,,0.00,meteohub,2013-03-30 08:07:00,
2013-03-30 04:12:00,21.7,16.2,29.46,ENE,68,0.0,0.0,79,0.00,,,0.00,meteohub,2013-03-30 08:12:00,
2013-03-30 04:17:00,21.9,16.3,29.46,SW,225,0.0,0.0,79,0.00,,,0.00,meteohub,2013-03-30 08:17:00,
2013-03-30 04:22:00,21.9,16.3,29.46,SSE,158,0.0,0.0,79,0.00,,,0.00,meteohub,2013-03-30 08:22:00,
2013-03-30 04:27:00,21.9,16.3,29.46,ENE,68,0.0,0.0,79,0.00,,,0.00,meteohub,2013-03-30 08:27:00,
2013-03-30 04:32:00,21.9,16.3,29.45,ESE,113,0.0,0.0,79,0.00,,,0.00,meteohub,2013-03-30 08:32:00,
2013-03-30 04:37:00,21.9,16.7,29.45,East,90,0.0,0.0,80,0.00,,,0.00,meteohub,2013-03-30 08:37:00,
2013-03-30 04:42:00,21.9,16.7,29.45,East,90,0.0,0.0,80,0.00,,,0.00,meteohub,2013-03-30 08:42:00,
2013-03-30 04:47:00,22.1,16.9,29.45,SE,135,0.0,0.0,80,0.00,,,0.00,meteohub,2013-03-30 08:47:00,
2013-03-30 04:52:00,22.1,16.9,29.44,SSE,158,0.0,0.0,80,0.00,,,0.00,meteohub,2013-03-30 08:52:00,
2013-03-30 04:57:00,22.3,17.1,29.44,SW,225,0.0,0.0,80,0.00,,,0.00,meteohub,2013-03-30 08:57:00,
2013-03-30 05:02:00,22.3,17.1,29.44,SSE,158,0.0,0.0,80,0.00,,,0.00,meteohub,2013-03-30 09:02:00,
2013-03-30 05:07:00,22.1,16.9,29.44,SSE,158,0.0,0.0,80,0.00,,,0.00,meteohub,2013-03-30 09:07:00,
2013-03-30 05:12:00,21.9,16.7,29.43,ESE,113,0.0,0.0,80,0.00,,,0.00,meteohub,2013-03-30 09:12:00,
2013-03-30 05:17:00,21.9,16.7,29.43,ESE,113,0.0,0.0,80,0.00,,,0.00,meteohub,2013-03-30 09:17:00,
2013-03-30 05:22:00,21.9,16.7,29.43,SE,135,0.0,0.0,80,0.00,,,0.00,meteohub,2013-03-30 09:22:00,
2013-03-30 05:28:00,21.9,16.7,29.43,ESE,113,0.0,0.0,80,0.00,,,0.00,meteohub,2013-03-30 09:28:00,
2013-03-30 05:33:00,22.1,16.9,29.43,SSE,158,0.0,0.0,80,0.00,,,0.00,meteohub,2013-03-30 09:33:00,
2013-03-30 05:34:00,22.1,16.9,29.43,SSE,158,0.0,0.0,80,0.00,,,0.00,meteohub,2013-03-30 09:34:00,
2013-03-30 05:39:00,22.1,16.9,29.43,SSW,203,0.0,0.0,80,0.00,,,0.00,meteohub,2013-03-30 09:39:00,
2013-03-30 05:44:00,21.7,16.5,29.43,SW,225,0.0,0.0,80,0.00,,,0.00,meteohub,2013-03-30 09:44:00,
2013-03-30 05:49:00,21.6,16.3,29.43,SSW,203,0.0,0.0,80,0.00,,,0.00,meteohub,2013-03-30 09:49:00,
2013-03-30 05:55:00,21.4,16.2,29.43,West,270,0.0,0.0,80,0.00,,,0.00,meteohub,2013-03-30 09:55:00,
2013-03-30 06:01:00,21.0,15.6,29.43,North,0,0.0,0.0,79,0.00,,,0.00,meteohub,2013-03-30 10:01:00,
2013-03-30 06:06:00,20.8,15.6,29.43,NNE,23,0.0,0.0,80,0.00,,,0.00,meteohub,2013-03-30 10:06:00,
2013-03-30 06:11:00,20.8,15.6,29.43,NNE,23,0.0,0.0,80,0.00,,,0.00,meteohub,2013-03-30 10:11:00,
2013-03-30 06:16:00,20.8,15.6,29.42,NNE,23,0.0,0.0,80,0.00,,,0.00,meteohub,2013-03-30 10:16:00,
2013-03-30 06:21:00,20.8,15.6,29.42,East,90,0.0,0.0,80,0.00,,,0.00,meteohub,2013-03-30 10:21:00,
2013-03-30 06:26:00,20.7,15.4,29.42,North,0,0.0,0.0,80,0.00,,,0.00,meteohub,2013-03-30 10:26:00,
2013-03-30 06:32:00,20.7,15.4,29.42,NE,45,0.0,0.0,80,0.00,,,0.00,meteohub,2013-03-30 10:32:00,
2013-03-30 06:37:00,20.8,15.6,29.42,SSW,203,0.0,0.0,80,0.00,,,0.00,meteohub,2013-03-30 10:37:00,
2013-03-30 06:42:00,20.7,15.4,29.42,SW,225,0.0,0.0,80,0.00,,,0.00,meteohub,2013-03-30 10:42:00,
2013-03-30 06:47:00,20.5,15.3,29.42,NNE,23,0.0,0.0,80,0.00,,,0.00,meteohub,2013-03-30 10:47:00,
2013-03-30 06:52:00,20.5,15.3,29.42,WSW,248,0.0,0.0,80,0.00,,,0.00,meteohub,2013-03-30 10:52:00,
2013-03-30 06:57:00,20.3,15.1,29.42,NNE,23,0.0,0.0,80,0.00,,,0.00,meteohub,2013-03-30 10:57:00,
2013-03-30 07:02:00,20.1,14.9,29.42,NNE,23,0.0,0.0,80,0.00,,,0.00,meteohub,2013-03-30 11:02:00,
2013-03-30 07:07:00,20.1,14.9,29.42,NE,45,0.0,0.0,80,0.00,,,0.00,meteohub,2013-03-30 11:07:00,
2013-03-30 07:12:00,19.9,15.1,29.41,West,270,0.0,1.0,81,0.00,,,0.00,meteohub,2013-03-30 11:12:00,
2013-03-30 07:17:00,19.9,15.1,29.41,NNE,23,2.0,2.0,81,0.00,,,0.00,meteohub,2013-03-30 11:17:00,
2013-03-30 07:22:00,19.8,14.9,29.41,North,0,0.0,2.0,81,0.00,,,0.00,meteohub,2013-03-30 11:22:00,
2013-03-30 07:27:00,19.8,14.9,29.41,North,0,0.0,2.0,81,0.00,,,0.00,meteohub,2013-03-30 11:27:00,
2013-03-30 07:32:00,19.8,14.9,29.42,SSE,158,0.0,2.0,81,0.00,,,0.00,meteohub,2013-03-30 11:32:00,
2013-03-30 07:37:00,19.8,14.9,29.42,East,90,0.0,1.0,81,0.00,,,0.00,meteohub,2013-03-30 11:37:00,
2013-03-30 07:42:00,19.8,14.9,29.42,South,180,0.0,1.0,81,0.00,,,0.00,meteohub,2013-03-30 11:42:00,
2013-03-30 07:47:00,19.8,14.9,29.42,SW,225,0.0,0.0,81,0.00,,,0.00,meteohub,2013-03-30 11:47:00,
2013-03-30 07:53:00,19.6,14.7,29.41,SSW,203,0.0,0.0,81,0.00,,,0.00,meteohub,2013-03-30 11:53:00,
2013-03-30 07:58:00,19.6,14.7,29.41,ESE,113,0.0,0.0,81,0.00,,,0.00,meteohub,2013-03-30 11:58:00,
2013-03-30 08:03:00,19.8,14.9,29.41,ENE,68,0.0,0.0,81,0.00,,,0.00,meteohub,2013-03-30 12:03:00,
2013-03-30 08:08:00,20.1,15.3,29.41,SSW,203,2.0,0.0,81,0.00,,,0.00,meteohub,2013-03-30 12:08:00,
2013-03-30 08:13:00,20.3,15.6,29.40,SW,225,0.0,0.0,82,0.00,,,0.00,meteohub,2013-03-30 12:13:00,
2013-03-30 08:18:00,20.5,15.8,29.40,SSE,158,0.0,2.0,82,0.00,,,0.00,meteohub,2013-03-30 12:18:00,
2013-03-30 08:23:00,21.2,16.5,29.40,NE,45,0.0,2.0,82,0.00,,,0.00,meteohub,2013-03-30 12:23:00,
2013-03-30 08:28:00,21.6,16.9,29.40,South,180,0.0,2.0,82,0.00,,,0.00,meteohub,2013-03-30 12:28:00,
2013-03-30 08:33:00,22.1,17.2,29.40,SW,225,0.0,2.0,81,0.00,,,0.00,meteohub,2013-03-30 12:33:00,
2013-03-30 08:38:00,23.0,18.3,29.40,NNE,23,2.0,0.0,82,0.00,,,0.00,meteohub,2013-03-30 12:38:00,
2013-03-30 08:43:00,23.5,18.9,29.40,NE,45,0.0,0.0,82,0.00,,,0.00,meteohub,2013-03-30 12:43:00,
2013-03-30 08:48:00,24.6,19.6,29.40,East,90,0.0,2.0,81,0.00,,,0.00,meteohub,2013-03-30 12:48:00,
2013-03-30 08:54:00,25.5,20.5,29.40,ENE,68,0.0,2.0,81,0.00,,,0.00,meteohub,2013-03-30 12:54:00,
2013-03-30 08:59:00,27.7,22.6,29.39,East,90,0.0,2.0,81,0.00,,,0.00,meteohub,2013-03-30 12:59:00,
2013-03-30 09:04:00,28.8,23.7,29.39,ENE,68,0.0,2.0,81,0.00,,,0.00,meteohub,2013-03-30 13:04:00,
2013-03-30 09:09:00,30.2,25.2,29.39,ESE,113,0.0,0.0,81,0.00,,,0.00,meteohub,2013-03-30 13:09:00,
2013-03-30 09:14:00,31.3,25.9,29.40,East,90,0.0,2.0,80,0.00,,,0.00,meteohub,2013-03-30 13:14:00,
2013-03-30 09:19:00,32.7,26.2,29.40,East,90,2.0,2.0,77,0.00,,,0.00,meteohub,2013-03-30 13:19:00,
2013-03-30 09:24:00,34.3,25.9,29.40,SE,135,3.0,3.0,71,0.00,,,0.00,meteohub,2013-03-30 13:24:00,
2013-03-30 09:29:00,35.2,25.7,29.40,ESE,113,2.0,3.0,68,0.00,,,0.00,meteohub,2013-03-30 13:29:00,
2013-03-30 09:34:00,36.1,25.9,29.39,ESE,113,3.0,3.0,66,0.00,,,0.00,meteohub,2013-03-30 13:34:00,
2013-03-30 09:39:00,37.0,25.2,29.39,SE,135,3.0,3.0,62,0.00,,,0.00,meteohub,2013-03-30 13:39:00,
2013-03-30 09:44:00,37.8,25.5,29.39,ESE,113,2.0,3.0,61,0.00,,,0.00,meteohub,2013-03-30 13:44:00,
2013-03-30 09:49:00,38.3,24.8,29.39,ESE,113,4.0,4.0,58,0.00,,,0.00,meteohub,2013-03-30 13:49:00,
2013-03-30 09:54:00,38.8,24.4,29.38,East,90,4.0,5.0,56,0.00,,,0.00,meteohub,2013-03-30 13:54:00,
2013-03-30 09:59:00,39.2,24.8,29.38,SSE,158,2.0,5.0,56,0.00,,,0.00,meteohub,2013-03-30 13:59:00,
2013-03-30 10:04:00,39.6,24.8,29.38,SE,135,2.0,5.0,55,0.00,,,0.00,meteohub,2013-03-30 14:04:00,
2013-03-30 10:09:00,40.3,25.0,29.38,ESE,113,3.0,4.0,54,0.00,,,0.00,meteohub,2013-03-30 14:09:00,
2013-03-30 10:14:00,40.8,25.0,29.37,SE,135,6.0,6.0,53,0.00,,,0.00,meteohub,2013-03-30 14:14:00,
2013-03-30 10:19:00,40.8,24.6,29.37,SSE,158,5.0,5.0,52,0.00,,,0.00,meteohub,2013-03-30 14:19:00,
2013-03-30 10:24:00,41.2,24.8,29.37,SSE,158,4.0,5.0,52,0.00,,,0.00,meteohub,2013-03-30 14:24:00,
2013-03-30 10:29:00,41.7,25.0,29.37,SE,135,4.0,6.0,51,0.00,,,0.00,meteohub,2013-03-30 14:29:00,
2013-03-30 10:34:00,42.3,25.0,29.37,SE,135,4.0,5.0,50,0.00,,,0.00,meteohub,2013-03-30 14:34:00,
2013-03-30 10:39:00,42.4,25.2,29.37,SSE,158,2.0,5.0,50,0.00,,,0.00,meteohub,2013-03-30 14:39:00,
2013-03-30 10:45:00,42.4,24.1,29.37,SSE,158,6.0,7.0,48,0.00,,,0.00,meteohub,2013-03-30 14:45:00,
2013-03-30 10:50:00,42.3,23.9,29.37,SE,135,4.0,7.0,48,0.00,,,0.00,meteohub,2013-03-30 14:50:00,
2013-03-30 10:55:00,42.4,24.1,29.36,SE,135,6.0,7.0,48,0.00,,,0.00,meteohub,2013-03-30 14:55:00,
2013-03-30 11:00:00,43.0,24.6,29.36,SE,135,3.0,7.0,48,0.00,,,0.00,meteohub,2013-03-30 15:00:00,
2013-03-30 11:05:00,43.5,24.6,29.36,SSE,158,6.0,7.0,47,0.00,,,0.00,meteohub,2013-03-30 15:05:00,
2013-03-30 11:10:00,43.9,25.0,29.36,SSE,158,5.0,6.0,47,0.00,,,0.00,meteohub,2013-03-30 15:10:00,
2013-03-30 11:15:00,44.2,24.8,29.34,ESE,113,4.0,6.0,46,0.00,,,0.00,meteohub,2013-03-30 15:15:00,
2013-03-30 11:20:00,45.0,24.4,29.34,South,180,4.0,6.0,44,0.00,,,0.00,meteohub,2013-03-30 15:20:00,
2013-03-30 11:25:00,45.1,24.4,29.34,NE,45,3.0,6.0,44,0.00,,,0.00,meteohub,2013-03-30 15:25:00,
2013-03-30 11:30:00,45.7,25.0,29.34,SSW,203,2.0,6.0,44,0.00,,,0.00,meteohub,2013-03-30 15:30:00,
2013-03-30 11:35:00,46.2,25.5,29.34,South,180,3.0,5.0,44,0.00,,,0.00,meteohub,2013-03-30 15:35:00,
2013-03-30 11:40:00,46.6,25.3,29.34,SSE,158,3.0,5.0,43,0.00,,,0.00,meteohub,2013-03-30 15:40:00,
2013-03-30 11:45:00,47.1,25.2,29.34,SE,135,2.0,4.0,42,0.00,,,0.00,meteohub,2013-03-30 15:45:00,
2013-03-30 11:50:00,47.3,24.8,29.34,SSE,158,4.0,4.0,41,0.00,,,0.00,meteohub,2013-03-30 15:50:00,
2013-03-30 11:55:00,47.8,25.3,29.33,SSE,158,5.0,6.0,41,0.00,,,0.00,meteohub,2013-03-30 15:55:00,
2013-03-30 12:00:00,48.0,24.8,29.33,SSE,158,4.0,6.0,40,0.00,,,0.00,meteohub,2013-03-30 16:00:00,
2013-03-30 12:05:00,48.2,24.4,29.33,ESE,113,7.0,7.0,39,0.00,,,0.00,meteohub,2013-03-30 16:05:00,
2013-03-30 12:10:00,48.6,24.1,29.33,ESE,113,3.0,6.0,38,0.00,,,0.00,meteohub,2013-03-30 16:10:00,
2013-03-30 12:15:00,49.1,24.6,29.32,South,180,2.0,7.0,38,0.00,,,0.00,meteohub,2013-03-30 16:15:00,
2013-03-30 12:20:00,49.5,25.0,29.32,ESE,113,3.0,7.0,38,0.00,,,0.00,meteohub,2013-03-30 16:20:00,
2013-03-30 12:25:00,49.8,24.6,29.32,South,180,5.0,7.0,37,0.00,,,0.00,meteohub,2013-03-30 16:25:00,
2013-03-30 12:30:00,50.2,24.3,29.32,SSW,203,6.0,6.0,36,0.00,,,0.00,meteohub,2013-03-30 16:30:00,
2013-03-30 12:35:00,49.8,23.9,29.30,SSW,203,6.0,6.0,36,0.00,,,0.00,meteohub,2013-03-30 16:35:00,
2013-03-30 12:40:00,50.0,24.8,29.30,SSE,158,5.0,12.0,37,0.00,,,0.00,meteohub,2013-03-30 16:40:00,
2013-03-30 12:45:00,50.0,24.1,29.30,South,180,4.0,8.0,36,0.00,,,0.00,meteohub,2013-03-30 16:45:00,
2013-03-30 12:50:00,50.7,24.8,29.30,SE,135,6.0,8.0,36,0.00,,,0.00,meteohub,2013-03-30 16:50:00,
2013-03-30 12:55:00,50.9,23.5,29.29,SSE,158,8.0,9.0,34,0.00,,,0.00,meteohub,2013-03-30 16:55:00,
2013-03-30 13:01:00,51.1,23.7,29.29,SSW,203,6.0,9.0,34,0.00,,,0.00,meteohub,2013-03-30 17:01:00,
2013-03-30 13:06:00,51.1,23.7,29.29,SE,135,4.0,9.0,34,0.00,,,0.00,meteohub,2013-03-30 17:06:00,
2013-03-30 13:11:00,51.3,23.9,29.29,SE,135,3.0,9.0,34,0.00,,,0.00,meteohub,2013-03-30 17:11:00,
2013-03-30 13:17:00,51.3,23.9,29.28,SE,135,5.0,9.0,34,0.00,,,0.00,meteohub,2013-03-30 17:17:00,
2013-03-30 13:22:00,51.3,23.2,29.28,SSW,203,8.0,9.0,33,0.00,,,0.00,meteohub,2013-03-30 17:22:00,
2013-03-30 13:27:00,50.9,22.8,29.28,SE,135,4.0,8.0,33,0.00,,,0.00,meteohub,2013-03-30 17:27:00,
2013-03-30 13:32:00,50.9,23.5,29.27,SE,135,7.0,8.0,34,0.00,,,0.00,meteohub,2013-03-30 17:32:00,
2013-03-30 13:37:00,50.5,23.2,29.27,SSE,158,7.0,9.0,34,0.00,,,0.00,meteohub,2013-03-30 17:37:00,
2013-03-30 13:42:00,50.4,23.0,29.27,SSE,158,9.0,9.0,34,0.00,,,0.00,meteohub,2013-03-30 17:42:00,
2013-03-30 13:47:00,50.2,22.8,29.27,South,180,5.0,9.0,34,0.00,,,0.00,meteohub,2013-03-30 17:47:00,
2013-03-30 13:52:00,49.6,23.2,29.26,SSW,203,7.0,9.0,35,0.00,,,0.00,meteohub,2013-03-30 17:52:00,
2013-03-30 13:57:00,49.5,23.0,29.26,SW,225,4.0,9.0,35,0.00,,,0.00,meteohub,2013-03-30 17:57:00,
2013-03-30 14:02:00,49.5,23.0,29.26,SSE,158,6.0,9.0,35,0.00,,,0.00,meteohub,2013-03-30 18:02:00,
2013-03-30 14:07:00,49.6,23.2,29.26,SE,135,4.0,7.0,35,0.00,,,0.00,meteohub,2013-03-30 18:07:00,
2013-03-30 14:12:00,49.5,23.0,29.26,SSW,203,6.0,7.0,35,0.00,,,0.00,meteohub,2013-03-30 18:12:00,
2013-03-30 14:17:00,49.1,22.6,29.26,SSE,158,4.0,7.0,35,0.00,,,0.00,meteohub,2013-03-30 18:17:00,
2013-03-30 14:23:00,48.7,23.0,29.26,SSE,158,5.0,7.0,36,0.00,,,0.00,meteohub,2013-03-30 18:23:00,
2013-03-30 14:28:00,48.4,22.6,29.26,West,270,5.0,9.0,36,0.00,,,0.00,meteohub,2013-03-30 18:28:00,
2013-03-30 14:33:00,48.0,22.3,29.26,SSE,158,6.0,9.0,36,0.00,,,0.00,meteohub,2013-03-30 18:33:00,
2013-03-30 14:38:00,48.0,23.0,29.26,SSW,203,3.0,9.0,37,0.00,,,0.00,meteohub,2013-03-30 18:38:00,
2013-03-30 14:43:00,48.0,23.0,29.26,SW,225,4.0,9.0,37,0.00,,,0.00,meteohub,2013-03-30 18:43:00,
2013-03-30 14:48:00,47.8,23.5,29.26,SW,225,4.0,12.0,38,0.00,,,0.00,meteohub,2013-03-30 18:48:00,
2013-03-30 14:53:00,47.7,23.4,29.26,SW,225,5.0,12.0,38,0.00,,,0.00,meteohub,2013-03-30 18:53:00,
2013-03-30 14:58:00,47.8,22.1,29.26,SSW,203,7.0,8.0,36,0.00,,,0.00,meteohub,2013-03-30 18:58:00,
2013-03-30 15:03:00,48.0,22.3,29.26,SW,225,6.0,8.0,36,0.00,,,0.00,meteohub,2013-03-30 19:03:00,
2013-03-30 15:08:00,47.8,22.8,29.26,SSW,203,7.0,10.0,37,0.00,,,0.00,meteohub,2013-03-30 19:08:00,
2013-03-30 15:13:00,47.8,22.8,29.26,SSW,203,9.0,10.0,37,0.00,,,0.00,meteohub,2013-03-30 19:13:00,
2013-03-30 15:18:00,47.8,22.8,29.26,WSW,248,7.0,10.0,37,0.00,,,0.00,meteohub,2013-03-30 19:18:00,
2013-03-30 15:23:00,47.8,22.8,29.26,SSE,158,4.0,10.0,37,0.00,,,0.00,meteohub,2013-03-30 19:23:00,
2013-03-30 15:28:00,47.7,23.4,29.26,SSE,158,5.0,9.0,38,0.00,,,0.00,meteohub,2013-03-30 19:28:00,
2013-03-30 15:33:00,47.7,22.6,29.25,SSW,203,9.0,9.0,37,0.00,,,0.00,meteohub,2013-03-30 19:33:00,
2013-03-30 15:38:00,48.0,21.7,29.25,SSW,203,10.0,10.0,35,0.00,,,0.00,meteohub,2013-03-30 19:38:00,
2013-03-30 15:43:00,48.0,21.7,29.25,South,180,7.0,10.0,35,0.00,,,0.00,meteohub,2013-03-30 19:43:00,
2013-03-30 15:48:00,48.0,21.7,29.25,SW,225,10.0,11.0,35,0.00,,,0.00,meteohub,2013-03-30 19:48:00,
2013-03-30 15:53:00,48.0,21.7,29.25,WSW,248,11.0,11.0,35,0.00,,,0.00,meteohub,2013-03-30 19:53:00,
2013-03-30 15:58:00,48.0,22.3,29.25,SSW,203,6.0,13.0,36,0.00,,,0.00,meteohub,2013-03-30 19:58:00,
2013-03-30 16:03:00,47.8,22.1,29.25,SSW,203,8.0,13.0,36,0.00,,,0.00,meteohub,2013-03-30 20:03:00,
2013-03-30 16:08:00,47.8,22.8,29.25,SSE,158,4.0,13.0,37,0.00,,,0.00,meteohub,2013-03-30 20:08:00,
2013-03-30 16:14:00,47.7,22.6,29.25,NNW,338,6.0,8.0,37,0.00,,,0.00,meteohub,2013-03-30 20:14:00,
2013-03-30 16:19:00,47.7,22.6,29.25,SSW,203,3.0,8.0,37,0.00,,,0.00,meteohub,2013-03-30 20:19:00,
2013-03-30 16:24:00,47.5,22.5,29.25,SSW,203,5.0,8.0,37,0.00,,,0.00,meteohub,2013-03-30 20:24:00,
2013-03-30 16:29:00,47.7,22.6,29.25,South,180,5.0,7.0,37,0.00,,,0.00,meteohub,2013-03-30 20:29:00,
2013-03-30 16:34:00,47.5,23.2,29.23,SSW,203,5.0,7.0,38,0.00,,,0.00,meteohub,2013-03-30 20:34:00,
2013-03-30 16:39:00,47.3,23.0,29.23,South,180,3.0,6.0,38,0.00,,,0.00,meteohub,2013-03-30 20:39:00,
2013-03-30 16:44:00,47.3,23.0,29.23,SSW,203,3.0,6.0,38,0.00,,,0.00,meteohub,2013-03-30 20:44:00,
2013-03-30 16:49:00,47.3,23.0,29.23,South,180,3.0,5.0,38,0.00,,,0.00,meteohub,2013-03-30 20:49:00,
2013-03-30 16:54:00,47.1,23.4,29.22,South,180,2.0,5.0,39,0.00,,,0.00,meteohub,2013-03-30 20:54:00,
2013-03-30 16:59:00,47.3,23.0,29.22,SSW,203,4.0,6.0,38,0.00,,,0.00,meteohub,2013-03-30 20:59:00,
2013-03-30 17:04:00,47.3,23.5,29.22,SSE,158,2.0,6.0,39,0.00,,,0.00,meteohub,2013-03-30 21:04:00,
2013-03-30 17:09:00,47.5,23.7,29.22,SW,225,4.0,4.0,39,0.00,,,0.00,meteohub,2013-03-30 21:09:00,
2013-03-30 17:14:00,47.5,23.7,29.21,NNE,23,0.0,4.0,39,0.00,,,0.00,meteohub,2013-03-30 21:14:00,
2013-03-30 17:19:00,47.5,23.7,29.21,ESE,113,2.0,4.0,39,0.00,,,0.00,meteohub,2013-03-30 21:19:00,
2013-03-30 17:24:00,47.3,24.3,29.21,SW,225,0.0,4.0,40,0.00,,,0.00,meteohub,2013-03-30 21:24:00,
2013-03-30 17:29:00,47.7,23.9,29.21,SSW,203,2.0,4.0,39,0.00,,,0.00,meteohub,2013-03-30 21:29:00,
2013-03-30 17:34:00,47.8,23.5,29.19,South,180,3.0,4.0,38,0.00,,,0.00,meteohub,2013-03-30 21:34:00,
2013-03-30 17:39:00,47.5,23.2,29.19,SW,225,4.0,5.0,38,0.00,,,0.00,meteohub,2013-03-30 21:39:00,
2013-03-30 17:44:00,47.3,23.5,29.19,SSE,158,4.0,5.0,39,0.00,,,0.00,meteohub,2013-03-30 21:44:00,
2013-03-30 17:49:00,47.3,23.5,29.19,ESE,113,2.0,5.0,39,0.00,,,0.00,meteohub,2013-03-30 21:49:00,
2013-03-30 17:54:00,47.1,24.1,29.16,NE,45,3.0,4.0,40,0.00,,,0.00,meteohub,2013-03-30 21:54:00,
2013-03-30 17:59:00,46.9,23.9,29.16,SSE,158,2.0,4.0,40,0.00,,,0.00,meteohub,2013-03-30 21:59:00,
2013-03-30 18:04:00,47.1,24.1,29.16,SE,135,0.0,4.0,40,0.00,,,0.00,meteohub,2013-03-30 22:04:00,
2013-03-30 18:09:00,46.9,23.9,29.16,SSW,203,0.0,3.0,40,0.00,,,0.00,meteohub,2013-03-30 22:09:00,
2013-03-30 18:14:00,46.9,25.0,29.16,SSE,158,5.0,8.0,42,0.00,,,0.00,meteohub,2013-03-30 22:14:00,
2013-03-30 18:19:00,46.8,24.3,29.16,SW,225,10.0,10.0,41,0.00,,,0.00,meteohub,2013-03-30 22:19:00,
2013-03-30 18:24:00,46.9,23.9,29.16,SSW,203,14.0,14.0,40,0.00,,,0.00,meteohub,2013-03-30 22:24:00,
2013-03-30 18:29:00,47.3,24.8,29.16,South,180,5.0,14.0,41,0.00,,,0.00,meteohub,2013-03-30 22:29:00,
2013-03-30 18:34:00,47.3,24.3,29.16,SSW,203,7.0,14.0,40,0.00,,,0.00,meteohub,2013-03-30 22:34:00,
2013-03-30 18:39:00,46.8,27.1,29.16,SSW,203,5.0,14.0,46,0.00,,,0.00,meteohub,2013-03-30 22:39:00,
2013-03-30 18:44:00,46.0,27.9,29.16,SW,225,13.0,14.0,49,0.00,,,0.00,meteohub,2013-03-30 22:44:00,
2013-03-30 18:49:00,45.9,28.2,29.16,WSW,248,8.0,18.0,50,0.00,,,0.00,meteohub,2013-03-30 22:49:00,
2013-03-30 18:54:00,45.5,27.9,29.17,SSW,203,6.0,18.0,50,0.00,,,0.00,meteohub,2013-03-30 22:54:00,
2013-03-30 18:59:00,45.3,27.3,29.17,SSW,203,6.0,18.0,49,0.00,,,0.00,meteohub,2013-03-30 22:59:00,
2013-03-30 19:04:00,45.5,27.9,29.17,SE,135,12.0,18.0,50,0.00,,,0.00,meteohub,2013-03-30 23:04:00,
2013-03-30 19:10:00,45.5,27.5,29.17,SSW,203,7.0,16.0,49,0.00,,,0.00,meteohub,2013-03-30 23:10:00,
2013-03-30 19:15:00,45.5,27.5,29.15,SSE,158,7.0,12.0,49,0.00,,,0.00,meteohub,2013-03-30 23:15:00,
2013-03-30 19:20:00,45.5,27.0,29.15,NNE,23,3.0,12.0,48,0.00,,,0.00,meteohub,2013-03-30 23:20:00,
2013-03-30 19:25:00,45.5,27.0,29.15,SW,225,4.0,9.0,48,0.00,,,0.00,meteohub,2013-03-30 23:25:00,
2013-03-30 19:30:00,45.5,26.4,29.15,SSW,203,3.0,9.0,47,0.00,,,0.00,meteohub,2013-03-30 23:30:00,
2013-03-30 19:35:00,45.5,26.4,29.15,SSW,203,5.0,7.0,47,0.00,,,0.00,meteohub,2013-03-30 23:35:00,
2013-03-30 19:40:00,45.5,26.4,29.15,SSW,203,5.0,7.0,47,0.00,,,0.00,meteohub,2013-03-30 23:40:00,
2013-03-30 19:45:00,45.1,26.1,29.15,SW,225,6.0,6.0,47,0.00,,,0.00,meteohub,2013-03-30 23:45:00,
2013-03-30 19:50:00,45.1,26.1,29.15,SW,225,9.0,9.0,47,0.00,,,0.00,meteohub,2013-03-30 23:50:00,
2013-03-30 19:55:00,45.7,26.1,29.14,SSW,203,4.0,10.0,46,0.00,,,0.00,meteohub,2013-03-30 23:55:00,
2013-03-30 20:00:00,45.7,26.1,29.14,North,0,0.0,10.0,46,0.00,,,0.00,meteohub,2013-03-31 00:00:00,
2013-03-30 20:05:00,45.5,25.9,29.14,South,180,3.0,10.0,46,0.00,,,0.00,meteohub,2013-03-31 00:05:00,
2013-03-30 20:10:00,45.7,26.1,29.14,SSW,203,2.0,9.0,46,0.00,,,0.00,meteohub,2013-03-31 00:10:00,
2013-03-30 20:15:00,45.7,26.1,29.12,WSW,248,0.0,7.0,46,0.00,,,0.00,meteohub,2013-03-31 00:15:00,
2013-03-30 20:20:00,45.5,25.9,29.12,ESE,113,2.0,7.0,46,0.00,,,0.00,meteohub,2013-03-31 00:20:00,
2013-03-30 20:25:00,45.3,26.2,29.12,SSE,158,2.0,4.0,47,0.00,,,0.00,meteohub,2013-03-31 00:25:00,
2013-03-30 20:30:00,45.1,25.5,29.12,SSE,158,3.0,4.0,46,0.00,,,0.00,meteohub,2013-03-31 00:30:00,
2013-03-30 20:35:00,45.1,25.0,29.13,South,180,5.0,7.0,45,0.00,,,0.00,meteohub,2013-03-31 00:35:00,
2013-03-30 20:40:00,45.1,25.0,29.13,South,180,10.0,10.0,45,0.00,,,0.00,meteohub,2013-03-31 00:40:00,
2013-03-30 20:45:00,45.7,24.4,29.13,SSE,158,7.0,11.0,43,0.00,,,0.00,meteohub,2013-03-31 00:45:00,
2013-03-30 20:50:00,45.9,25.7,29.13,SW,225,7.0,11.0,45,0.00,,,0.00,meteohub,2013-03-31 00:50:00,
2013-03-30 20:55:00,45.9,26.8,29.12,SSW,203,7.0,11.0,47,0.00,,,0.00,meteohub,2013-03-31 00:55:00,
2013-03-30 21:00:00,45.9,26.8,29.12,SSE,158,7.0,11.0,47,0.00,,,0.00,meteohub,2013-03-31 01:00:00,
2013-03-30 21:05:00,45.5,27.0,29.12,SSW,203,5.0,11.0,48,0.00,,,0.00,meteohub,2013-03-31 01:05:00,
2013-03-30 21:10:00,45.3,26.8,29.12,SW,225,5.0,12.0,48,0.00,,,0.00,meteohub,2013-03-31 01:10:00,
2013-03-30 21:15:00,45.7,26.1,29.12,South,180,8.0,10.0,46,0.00,,,0.00,meteohub,2013-03-31 01:15:00,
2013-03-30 21:20:00,45.9,26.2,29.12,SSW,203,7.0,10.0,46,0.00,,,0.00,meteohub,2013-03-31 01:20:00,
2013-03-30 21:25:00,46.0,25.9,29.12,South,180,11.0,11.0,45,0.00,,,0.00,meteohub,2013-03-31 01:25:00,
2013-03-30 21:30:00,46.2,26.1,29.12,SSE,158,9.0,9.0,45,0.00,,,0.00,meteohub,2013-03-31 01:30:00,
2013-03-30 21:35:00,46.6,27.0,29.12,South,180,10.0,11.0,46,0.00,,,0.00,meteohub,2013-03-31 01:35:00,
2013-03-30 21:41:00,46.4,26.8,29.12,South,180,4.0,11.0,46,0.00,,,0.00,meteohub,2013-03-31 01:41:00,
2013-03-30 21:46:00,46.0,27.0,29.12,SSW,203,8.0,14.0,47,0.00,,,0.00,meteohub,2013-03-31 01:46:00,
2013-03-30 21:51:00,46.0,27.9,29.12,SW,225,7.0,14.0,49,0.00,,,0.00,meteohub,2013-03-31 01:51:00,
2013-03-30 21:56:00,45.7,29.1,29.11,South,180,8.0,14.0,52,0.00,,,0.00,meteohub,2013-03-31 01:56:00,
2013-03-30 22:01:00,45.5,29.8,29.11,SSE,158,14.0,14.0,54,0.00,,,0.00,meteohub,2013-03-31 02:01:00,
2013-03-30 22:06:00,45.1,30.7,29.11,SW,225,10.0,18.0,57,0.00,,,0.00,meteohub,2013-03-31 02:06:00,
2013-03-30 22:11:00,44.6,32.0,29.11,SSW,203,16.0,18.0,61,0.00,,,0.00,meteohub,2013-03-31 02:11:00,
2013-03-30 22:16:00,44.1,32.7,29.12,SW,225,4.0,16.0,64,0.00,,,0.00,meteohub,2013-03-31 02:16:00,
2013-03-30 22:21:00,43.2,32.9,29.12,SSW,203,7.0,16.0,67,0.00,,,0.00,meteohub,2013-03-31 02:21:00,
2013-03-30 22:26:00,42.8,33.6,29.12,SSW,203,6.0,16.0,70,0.00,,,0.00,meteohub,2013-03-31 02:26:00,
2013-03-30 22:32:00,42.6,34.2,29.12,SSE,158,5.0,16.0,72,0.00,,,0.00,meteohub,2013-03-31 02:32:00,
2013-03-30 22:37:00,42.3,34.5,29.11,SW,225,6.0,9.0,74,0.00,,,0.00,meteohub,2013-03-31 02:37:00,
2013-03-30 22:42:00,42.1,35.1,29.11,SW,225,6.0,9.0,76,0.00,,,0.00,meteohub,2013-03-31 02:42:00,
2013-03-30 22:47:00,41.7,35.1,29.11,SSE,158,3.0,13.0,77,0.00,,,0.00,meteohub,2013-03-31 02:47:00,
2013-03-30 22:52:00,41.4,35.1,29.10,SSW,203,7.0,13.0,78,0.00,,,0.00,meteohub,2013-03-31 02:52:00,
2013-03-30 22:57:00,41.2,35.2,29.10,South,180,5.0,12.0,79,0.03,,,0.00,meteohub,2013-03-31 02:57:00,
2013-03-30 23:02:00,41.0,35.1,29.10,SSW,203,3.0,12.0,79,0.03,,,0.03,meteohub,2013-03-31 03:02:00,
2013-03-30 23:07:00,40.8,34.9,29.10,SSW,203,4.0,8.0,79,0.03,,,0.03,meteohub,2013-03-31 03:07:00,
2013-03-30 23:13:00,40.5,34.7,29.09,SSW,203,2.0,8.0,80,0.03,,,0.03,meteohub,2013-03-31 03:13:00,
2013-03-30 23:18:00,40.1,34.5,29.09,SE,135,4.0,5.0,80,0.03,,,0.03,meteohub,2013-03-31 03:18:00,
2013-03-30 23:23:00,40.1,34.5,29.09,SSE,158,4.0,5.0,80,0.03,,,0.03,meteohub,2013-03-31 03:23:00,
2013-03-30 23:28:00,39.7,34.2,29.09,SE,135,2.0,4.0,80,0.06,,,0.03,meteohub,2013-03-31 03:28:00,
2013-03-30 23:33:00,39.7,34.2,29.08,SSE,158,3.0,4.0,80,0.06,,,0.06,meteohub,2013-03-31 03:33:00,
2013-03-30 23:38:00,39.7,34.2,29.08,SE,135,2.0,5.0,80,0.06,,,0.06,meteohub,2013-03-31 03:38:00,
2013-03-30 23:43:00,39.6,34.0,29.08,South,180,3.0,5.0,80,0.06,,,0.06,meteohub,2013-03-31 03:43:00,
2013-03-30 23:48:00,39.6,34.0,29.08,East,90,3.0,5.0,80,0.06,,,0.06,meteohub,2013-03-31 03:48:00,
2013-03-30 23:53:00,39.6,34.0,29.06,ESE,113,2.0,5.0,80,0.06,,,0.06,meteohub,2013-03-31 03:53:00,
2013-03-30 23:58:00,39.6,34.0,29.06,ESE,113,2.0,5.0,80,0.03,,,0.06,meteohub,2013-03-31 03:58:00,